Torna al catalogo

SL-19 DEB

LostUNKNOWN
NORAD 24703·DEBRIS·🇷🇺 Russia

Lanciato Dec 26, 1994 da Baikonur Cosmodrome

Loading…

Prossimi Passaggi (prossime 24 ore)

TLE

ObsoletoSource: Space-Track

Epoca: Mar 14, 2025, 16:46 UTC

1 24703U 94085Z   25073.69862145  .00000065  00000-0  32127-2 0  9998
2 24703  64.7328 161.5969 0217629 247.7207 269.0137 11.20779294458121

Traccia SL-19 DEB in tempo reale con AllMySat

Download on the App Store